Dauntless Aviation
Airports Europe Switzerland
LSTA

Raron Airport

Raron, SWITZERLAND

Airport Info
Suggest Updated Information for this Airport

Location

Latitude / Longitude: 46°18'12"N / 7°49'23"E
  46°18.216'N / 7°49.398'E
  46.3036 / 7.8233
Satellite photo at:
Airport distance calculator
From:
Weather Reports

METAR

LSGS
21.7nm SW
LSGS 230250Z AUTO VRB02KT CAVOK M04/M10 Q0999
LSMS
21.7nm SW
LSMS 230250Z AUTO VRB02KT CAVOK M04/M10 Q0999
LIMH
22.8nm S
LIMH 230255Z /////KT 9999 BKN040 M16/M30 Q0985 RMK BKN MON LIB VAL NIL VIS MIN 9999
LSMM
29.4nm N
LSMM 230250Z 09003KT 050V110 9999 FEW190 M13/M14 Q0998 RMK BLU+
LSZB
39.2nm NW
LSZB 230250Z AUTO 09005KT 9000 NCD M04/M06 Q0998

TAF

Safelog

 

Dauntless Aviation

© 2007-2019 Dauntless Aviation, all rights reserved
Information provided via PilotNav comes from a variety of official and unofficial data sources. As errors are possible, do not use PilotNav for primary flight planning purposes. Verify any information that you receive via PilotNav with current and canonical charts and other official documents. The material in this database is subject to database copyrights held by Dauntless Aviation and may not be copied without the express permission of Dauntless Aviation - licenses for use of part of all of this data are available for purchase; enquire via the Dauntless Aviation helpdesk. A number of mechanisms and markers exist in the database to protect against and identify infringement / copyright. Automated queries against this website are stictly prohibited, and all activity is logged and analyzed.